Location: Bay Harbour
(38.2612°N, 75.2555°W)
Time: 02:06:54
(UTC+00:00)

OAO 2 Rocket - Pass Details

Date: 29 October 2020
Orbit: 676 x 746 km, 35.0° (Epoch: 02 December)

Event Time Altitude Azimuth Distance (km) Brightness Sun altitude
Rises 23:38:10 0° 265° (W) 3,063 8.3 -18.9°
Reaches altitude 10° 23:40:36 10° 261° (W) 2,136 7.0 -19.4°
Maximum altitude 23:45:31 60° 183° (S) 779 3.5 -20.4°
Enters shadow 23:46:56 42° 125° (SE) 967 3.6 -20.7°
